Zurück zum Katalog

KUIPER-00057

AktivKommunikationLEO
NORAD 64517·PAYLOAD·🇺🇸 United States

Gestartet Jun 23, 2025 von Cape Canaveral Space Force Station

Loading…

Nächste Überflüge (nächste 24 Stunden)

TLE

AktuellSource: CelesTrak SupGP

Epoche: Sep 14, 2026, 22:38 UTC

1 64517C 25134T   26257.94369213  .00002351  00000+0  30776-3 0  2570
2 64517  51.8976 113.6891 0000824 104.0775 207.0555 14.79927054    11

Verfolge KUIPER-00057 in Echtzeit mit AllMySat

Download on the App Store